"Pseudo-MPEC" for C0FMUZ5

Created 2023 Feb 1 3:22:03 UT using Find_Orb

Click here for an explanation of pseudo-MPECs

 
 Astrometry: 
     C0FMUZ5  C2023 01 25mCHA6XcuB=uO%H?#AstrometryIAv3JJm\^redacted;BfclickNV00
     C0FMUZ5  C2023 01 2582+/fLx5ut,JJ1siiBdeU4iIp'E6V]Hti2;o2m_aBk2FW+ihereFV00
     C0FMUZ5* C2023 01 25'Sfore7AT:k[_'kC)@f;[5'(ti$@UJQ:9QAlX3JL$_2_Q/CqO^,dV00
     C0FMUZ5  C2023 01 25@h9/m3=XWoy#e2ki^INJ/%3RPj6'0%tsLa7i%oNI$95I(srVx[6eV00
     C0FMUZ5  C2023 01 253@(XWcB6]pbxa+explanationWW`+ZdDogB_6tAL`.GhfXQcnhY0V00
     C0FMUZ5  C2023 01 25f@oCQU(esLZ`,WBQAIk)pYpNd3vRl`rfUo1w)^#E/OER@!rIq+syV00
     C0FMUZ5  C2023 01 25p,uR[usjD7UBt:El9UA8a2bN[3Y/2)oa,Hv[Af%2v!`6!S)VNuqPV00
     C0FMUZ5 KC2023 01 25.50606 10 18 53.08 +36 14 44.5    ~1PDM 22.3 RoNEOCP291
     C0FMUZ5 KC2023 01 25.51407 10 18 48.73 +36 14 07.7    ~1PDM 21.1 RoNEOCP291
     C0FMUZ5 KC2023 01 25.52213 10 18 44.42 +36 13 31.9    ~1PDM 21.2 RoNEOCP291

Station data:
(291) LPL/Spacewatch II  (N31.961669 W111.599905)  US/Arizona.  Observers J.
   V. Scotti, R. S. McMillan. 1.8-m f/2.7 reflector + CCD.
(V00) Kitt Peak-Bok  (N31.963125 W111.600190)  US/Arizona.  Observers T. A.
   Pruyne, B. M. Africano, E. J. Christensen, G. A. Farneth, D. C. Fuls, A.
   R. Gibbs, A. D. Grauer, H. Gröller, J. A. Johnson, R. A. Kowalski, S. M.
   Larson, G. J. Leonard, D. Rankin, R. L. Seaman, F. C. Shelly, K. W.
   Wierzchoś. 2.25-m reflector + CCD.

Orbital elements:  C0FMUZ5
   Perihelion 2023 Mar 9.16881 +/- 89.2 TT =  4:03:05 (JD 2460012.66881)
Epoch 2023 Jan 25.0 TT = JDT 2459969.5   Earth MOID: 0.2542   Ma: 0.0095
M 332.02545500 +/- 70               (J2000 ecliptic)             AutoNEOCP
n   0.64802671 +/- 0.24             Peri.  203.86766 +/- 100
a   1.32253581 +/- 0.327            Node   314.12415 +/- 4.3
e   0.0674049 +/- 0.163             Incl.   45.21097 +/- 15
P   1.52/555.52d           H 23.06  G  0.15   U 11.8  SR
q 1.23339034 +/- 0.203    Q 1.41168128 +/- 0.738
From 10 observations 2023 Jan. 25 (1.8 hr); mean residual 0".33
Residuals in arcseconds: 
230125 V00  .29-  .58-    230125 V00  .14+  .34+    230125 291  .28-  .47-    
230125 V00  .40+  .47+    230125 V00  .31+  .43+    230125 291  .38+  .32+    
230125 V00  .07+  .11+    230125 V00  .45-  .31-    
230125 V00  .12-  .32-    230125 291  .16-  .01+    

Ephemerides (geocentric):
Date (UTC) HH   RA             Dec           delta  r     elong  mag " sig PA
---- --------  ------------   ------------  ------ ------ -----  --- --------
2023 02 01 03  09 18 14.801   +25 45 43.14  .25952 1.2417 170.1 21.2 752' 132
2023 02 01 04  09 17 51.965   +25 40 58.47  .25942 1.2417 170.3 21.2 766' 132
2023 02 01 05  09 17 29.140   +25 36 13.33  .25932 1.2417 170.4 21.2 781' 132
2023 02 01 06  09 17 06.327   +25 31 27.73  .25922 1.2417 170.5 21.2 796' 132
2023 02 01 07  09 16 43.526   +25 26 41.66  .25913 1.2417 170.6 21.2 810' 132
2023 02 01 08  09 16 20.737   +25 21 55.12  .25903 1.2416 170.7 21.2 825' 132
2023 02 01 09  09 15 57.960   +25 17 08.13  .25894 1.2416 170.9 21.2 839' 132
2023 02 01 10  09 15 35.196   +25 12 20.69  .25885 1.2416 171.0 21.2 853' 132
2023 02 01 11  09 15 12.445   +25 07 32.79  .25875 1.2416 171.1 21.2 868' 132
2023 02 01 12  09 14 49.706   +25 02 44.45  .25866 1.2416 171.2 21.2 882' 133
2023 02 01 13  09 14 26.980   +24 57 55.66  .25858 1.2415 171.3 21.2 896' 133
2023 02 01 14  09 14 04.268   +24 53 06.43  .25849 1.2415 171.4 21.1 910' 133
2023 02 01 15  09 13 41.569   +24 48 16.76  .25840 1.2415 171.6 21.1 924' 133
2023 02 01 16  09 13 18.883   +24 43 26.66  .25832 1.2415 171.7 21.1 937' 133
2023 02 01 17  09 12 56.212   +24 38 36.13  .25823 1.2415 171.8 21.1 951' 133
2023 02 01 18  09 12 33.554   +24 33 45.17  .25815 1.2415 171.9 21.1 964' 133
2023 02 01 19  09 12 10.910   +24 28 53.78  .25807 1.2414 172.0 21.1 978' 134
2023 02 01 20  09 11 48.281   +24 24 01.98  .25799 1.2414 172.1 21.1 991' 134
2023 02 01 21  09 11 25.666   +24 19 09.76  .25791 1.2414 172.2 21.1  17d 134
2023 02 01 22  09 11 03.066   +24 14 17.13  .25784 1.2414 172.3 21.1  17d 134
2023 02 01 23  09 10 40.481   +24 09 24.09  .25776 1.2414 172.5 21.1  17d 134
2023 02 02 00  09 10 17.910   +24 04 30.65  .25768 1.2413 172.6 21.1  17d 134
2023 02 02 01  09 09 55.355   +23 59 36.80  .25761 1.2413 172.7 21.1  18d 135
2023 02 02 02  09 09 32.815   +23 54 42.55  .25754 1.2413 172.8 21.1  18d 135
2023 02 02 03  09 09 10.291   +23 49 47.92  .25747 1.2413 172.9 21.1  18d 135
2023 02 02 04  09 08 47.783   +23 44 52.89  .25740 1.2413 173.0 21.1  18d 135
2023 02 02 05  09 08 25.290   +23 39 57.47  .25733 1.2413 173.1 21.1  18d 135
2023 02 02 06  09 08 02.813   +23 35 01.67  .25726 1.2412 173.2 21.1  19d 135
2023 02 02 07  09 07 40.353   +23 30 05.50  .25720 1.2412 173.3 21.1  19d 135
2023 02 02 08  09 07 17.909   +23 25 08.95  .25713 1.2412 173.4 21.1  19d 136
2023 02 02 09  09 06 55.481   +23 20 12.02  .25707 1.2412 173.5 21.1  19d 136
2023 02 02 10  09 06 33.071   +23 15 14.73  .25701 1.2412 173.6 21.1  19d 136
2023 02 02 11  09 06 10.677   +23 10 17.08  .25695 1.2411 173.7 21.0  20d 136
2023 02 02 12  09 05 48.300   +23 05 19.07  .25689 1.2411 173.7 21.0  20d 136
2023 02 02 13  09 05 25.941   +23 00 20.70  .25683 1.2411 173.8 21.0  20d 136
2023 02 02 14  09 05 03.599   +22 55 21.98  .25678 1.2411 173.9 21.0  20d 136
2023 02 02 15  09 04 41.274   +22 50 22.91  .25672 1.2411 174.0 21.0  20d 137
2023 02 02 16  09 04 18.967   +22 45 23.50  .25667 1.2410 174.1 21.0  20d 137
2023 02 02 17  09 03 56.679   +22 40 23.75  .25662 1.2410 174.2 21.0  21d 137
2023 02 02 18  09 03 34.408   +22 35 23.66  .25656 1.2410 174.2 21.0  21d 137
2023 02 02 19  09 03 12.155   +22 30 23.24  .25651 1.2410 174.3 21.0  21d 137
2023 02 02 20  09 02 49.921   +22 25 22.50  .25647 1.2410 174.4 21.0  21d 137
2023 02 02 21  09 02 27.705   +22 20 21.43  .25642 1.2410 174.4 21.0  21d 137
2023 02 02 22  09 02 05.509   +22 15 20.04  .25637 1.2409 174.5 21.0  22d 137
2023 02 02 23  09 01 43.331   +22 10 18.34  .25633 1.2409 174.6 21.0  22d 137
2023 02 03 00  09 01 21.172   +22 05 16.32  .25628 1.2409 174.6 21.0  22d 138
2023 02 03 01  09 00 59.032   +22 00 14.00  .25624 1.2409 174.7 21.0  22d 138
2023 02 03 02  09 00 36.912   +21 55 11.38  .25620 1.2409 174.7 21.0  22d 138